Location: Kings Park
(40.8862°N, 73.2573°W)
Time: 07:20:19
(UTC+00:00)

Cosmos 1745 Rocket - Pass Details

Date: 29 October 2020
Orbit: 953 x 997 km, 83.0° (Epoch: 02 December)

Event Time Altitude Azimuth Distance (km) Brightness Sun altitude
Rises 23:22:45 0° 352° (N) 3,697 7.1 -17.6°
Reaches altitude 10° 23:25:16 10° 353° (N) 2,751 6.4 -18.1°
Maximum altitude 23:31:36 88° 84° (E) 998 4.0 -19.3°
Drops below altitude 10° 23:37:57 10° 174° (S) 2,753 6.3 -20.5°
Sets 23:40:28 0° 174° (S) 3,700 7.0 -21.0°
